Theta_e
327 330 332 335 334 339 343 344 341 342 340 339 343 348 349 349 348 346 347 345 333 328 331 338 330 324 323 325 327 327 326 326 326 326 326 326 327 327 326 326 325 325 325 325 324 326 330 336 340
326 329 331 331 332 339 342 342 344 341 341 340 345 349 348 349 348 346 346 342 333 327 327 334 336 326 324 324 326 328 328 327 327 327 327 327 327 327 327 327 327 327 327 327 326 326 326 325 325
325 328 329 331 330 337 340 341 341 340 340 339 347 347 346 347 346 345 344 342 330 327 328 330 337 331 326 324 324 325 326 327 326 327 327 327 327 326 326 327 327 327 327 327 328 328 328 328 328
325 326 322 326 328 331 338 340 340 340 337 342 344 346 344 344 344 339 334 331 329 329 332 335 337 335 328 327 326 326 326 326 327 327 326 326 326 325 325 326 326 326 326 325 326 327 328 328 328
324 324 326 325 325 330 336 339 340 342 340 343 341 343 345 344 342 340 335 336 333 332 331 336 339 335 331 328 329 329 330 331 331 331 331 329 328 326 326 326 326 326 326 325 325 325 326 327 328
324 322 326 330 329 333 338 340 340 339 338 339 343 343 344 343 340 343 343 343 341 338 333 332 335 338 338 339 333 330 331 333 335 337 337 337 334 331 328 327 326 327 326 326 326 327 327 327 328
324 324 324 323 334 339 341 338 339 337 337 339 339 342 344 344 339 345 345 342 339 333 332 331 331 333 337 338 339 337 333 332 333 335 337 338 337 333 331 329 328 328 326 327 331 336 337 335 332
321 323 322 321 335 339 339 338 338 334 335 335 339 341 344 344 340 344 340 335 332 331 330 330 330 330 329 328 328 328 329 334 334 333 333 332 332 331 330 329 328 328 329 337 341 342 343 343 340
321 324 325 323 327 336 336 338 338 336 335 336 335 342 344 344 341 344 340 340 337 336 336 336 336 337 335 333 333 331 328 327 327 326 327 327 328 329 329 327 327 327 340 343 343 344 342 343 342
322 325 324 322 327 338 336 339 337 337 338 339 340 341 344 344 343 339 335 339 339 341 338 333 332 335 338 338 332 333 336 338 337 336 335 332 331 327 326 326 329 337 339 337 337 341 342 342 340
320 325 321 321 324 336 333 338 336 337 338 337 338 344 343 343 343 335 338 339 337 338 338 335 333 338 338 338 334 333 335 334 334 338 338 338 339 337 337 338 338 336 336 336 337 341 340 338 337
322 319 320 323 324 331 333 333 337 336 337 340 341 343 343 344 342 336 333 331 333 337 333 332 334 335 334 333 326 326 330 332 333 333 334 335 336 337 337 336 336 336 335 335 333 336 338 338 335
320 319 319 320 325 327 330 334 335 334 337 340 341 342 343 343 340 336 333 332 334 337 335 333 332 323 317 313 313 314 314 315 316 320 325 330 333 333 333 333 333 333 330 328 330 331 331 331 331
318 319 320 322 327 330 334 333 334 334 338 343 344 344 343 340 339 335 333 334 326 321 321 317 314 313 313 314 314 313 316 315 315 316 319 325 326 326 328 329 329 329 328 327 325 326 327 328 328
318 322 322 321 325 331 332 333 332 334 338 342 343 342 341 340 337 334 333 316 315 314 314 314 316 316 315 314 316 314 315 317 316 316 317 323 323 324 326 326 326 326 325 324 323 323 325 326 327
322 322 324 320 321 326 329 331 330 335 338 340 340 341 340 336 336 331 318 318 317 317 317 317 318 317 316 316 316 317 316 317 316 316 319 323 323 320 322 325 325 324 324 323 321 320 322 323 322
323 325 323 321 319 324 324 325 329 334 338 339 340 342 341 338 332 324 320 321 320 319 319 318 318 318 317 317 317 317 317 317 316 315 319 315 313 313 314 313 314 321 325 324 323 322 321 321 320
325 324 323 323 320 319 324 324 330 333 338 339 340 341 340 336 324 318 321 320 320 320 319 319 318 318 318 317 317 317 317 318 318 315 316 313 311 312 313 311 312 311 315 326 325 323 321 320 319
323 323 324 323 320 321 323 324 329 332 337 337 338 339 336 331 328 321 321 321 320 320 319 319 319 318 318 318 318 317 318 319 317 315 314 315 313 315 313 313 311 311 310 311 316 314 321 321 320
323 324 323 322 320 322 320 324 330 331 333 334 336 337 334 332 327 322 322 321 321 321 320 320 320 320 319 319 318 319 318 317 317 316 314 314 313 314 314 313 313 312 311 311 309 308 309 312 318
323 323 323 323 321 318 319 321 327 329 329 330 332 336 334 333 330 326 323 323 324 323 322 322 321 322 322 321 319 318 318 316 316 316 315 314 314 314 314 313 313 312 313 313 311 310 309 313 313
324 321 321 321 321 323 317 322 323 324 330 330 331 331 331 330 328 326 325 325 326 326 325 322 317 318 322 325 324 321 319 319 319 318 318 317 317 317 316 316 315 315 314 313 313 314 310 312 316
324 319 319 319 320 320 321 321 320 324 326 329 330 331 330 330 329 328 327 326 324 323 319 316 315 316 319 324 323 319 314 312 311 311 311 311 311 310 310 310 309 309 310 315 314 313 312 312 311
317 319 317 318 319 322 320 322 323 326 327 327 328 329 329 329 325 324 319 317 316 315 315 315 315 314 312 311 311 310 310 310 310 310 309 309 308 308 308 308 308 307 307 308 314 314 313 312 312
323 323 323 321 321 321 319 324 326 324 323 327 328 328 327 321 318 317 315 314 314 313 312 312 311 311 311 310 311 311 310 309 308 308 308 308 308 308 309 308 308 308 308 308 308 313 314 313 313
319 321 322 321 321 321 320 325 325 322 319 319 321 324 318 316 316 314 313 312 312 312 312 311 311 311 311 311 310 309 308 307 307 307 307 308 307 307 306 305 306 307 307 309 310 313 314 313 313
321 322 318 323 320 322 322 322 323 322 320 319 319 318 316 314 313 313 312 313 312 312 311 311 311 311 310 309 308 307 306 307 307 307 307 307 306 305 305 305 304 304 305 308 311 312 314 314 313
319 318 323 323 324 322 322 321 322 324 323 320 319 317 314 313 312 313 313 312 312 312 311 311 311 310 309 307 307 306 306 306 307 308 308 307 306 306 305 304 304 304 304 305 308 310 311 312 310
320 321 319 321 322 323 323 322 320 322 322 322 319 315 314 313 313 313 313 313 312 311 310 310 309 308 308 307 306 306 306 307 308 308 308 308 308 308 307 306 305 304 304 304 305 307 310 310 309
321 320 321 323 324 321 321 323 318 319 317 317 317 314 313 313 314 313 313 312 311 310 310 310 309 308 308 307 306 305 305 307 308 308 309 309 309 308 308 306 306 305 306 305 306 306 308 309 309
Wind_Speed
6 6 4 3 1 3 4 2 1 2 1 2 4 8 11 9 5 6 9 7 10 9 10 12 12 11 10 10 9 8 7 7 7 8 7 7 7 7 7 7 7 6 6 6 7 7 6 6 5
8 7 4 2 4 6 3 1 4 4 1 2 2 5 7 6 8 5 4 8 9 6 7 10 11 11 10 9 9 9 7 7 6 5 5 5 4 4 4 4 4 4 3 3 3 3 3 3 2
9 6 2 3 2 5 4 4 3 2 2 1 3 7 4 3 6 4 7 9 8 6 6 9 11 11 10 9 8 7 7 6 4 3 2 1 1 1 1 1 2 1 1 1 1 1 1 1 1
5 3 5 5 5 5 2 7 6 6 3 2 5 5 2 6 5 9 10 9 7 6 7 7 9 10 9 7 6 5 4 3 2 2 1 3 3 4 3 3 3 3 3 3 3 4 4 5 5
4 4 4 4 3 2 2 7 9 5 3 3 3 2 3 7 12 11 10 9 6 5 7 8 9 9 7 6 5 3 3 3 3 4 4 5 6 6 6 5 5 5 6 5 5 5 5 5 6
2 2 3 5 3 3 5 9 10 5 4 7 6 5 2 10 11 11 8 5 7 6 6 7 6 5 6 6 6 6 6 6 6 6 5 6 7 7 7 7 7 8 7 6 6 6 6 7 7
3 2 3 2 5 5 6 10 3 7 7 7 8 5 4 10 10 11 6 7 8 8 8 6 6 4 4 3 4 7 7 7 7 9 10 10 9 10 10 9 9 10 10 9 8 7 7 8 9
4 2 3 2 6 5 8 7 5 6 5 10 7 5 6 13 12 11 8 7 9 10 9 7 5 3 2 2 3 5 7 9 9 10 10 11 12 12 12 12 11 11 12 11 9 8 9 9 9
2 1 3 4 6 7 11 6 3 5 10 4 6 6 8 16 13 11 7 6 6 7 6 6 5 3 1 1 1 4 5 7 8 9 10 11 12 12 12 12 12 12 11 11 12 12 13 13 13
0 1 4 4 8 10 18 11 12 6 7 4 8 12 16 17 13 11 7 4 3 3 3 1 4 4 2 3 6 6 7 9 11 10 10 11 11 12 13 13 12 11 11 15 15 16 14 14 14
2 2 1 4 8 20 16 16 9 15 9 15 21 19 20 20 15 10 5 4 3 2 5 7 7 7 8 8 8 9 11 12 12 13 13 14 12 10 10 11 12 14 14 15 14 14 15 15 15
3 1 1 6 8 16 17 15 11 11 8 11 16 20 22 18 15 10 5 2 2 4 5 7 7 9 11 13 13 14 14 14 14 14 15 16 17 18 15 13 13 13 14 15 15 16 17 17 17
1 3 4 7 10 11 13 8 7 6 7 16 21 22 20 15 14 10 5 4 5 6 8 8 10 11 12 14 15 15 16 17 17 18 17 15 14 16 18 20 19 18 19 17 16 16 16 18 18
4 7 8 6 9 5 10 6 3 4 8 17 19 18 15 14 14 8 8 8 5 5 6 6 9 11 11 13 15 12 19 19 19 19 19 19 19 19 19 19 21 22 21 20 19 17 17 16 17
5 5 8 8 4 4 7 3 2 4 10 15 15 14 16 14 13 10 12 11 11 11 11 10 8 7 6 4 9 7 9 14 15 15 16 15 17 20 20 18 17 19 19 20 20 19 17 16 14
3 4 6 4 1 5 5 15 2 7 12 13 13 12 13 16 14 15 14 11 11 11 8 4 4 2 4 5 7 10 10 9 13 17 18 17 17 18 19 18 17 19 20 20 21 21 19 17 15
5 3 4 3 3 4 5 9 8 12 14 14 13 13 12 15 16 18 13 6 4 4 6 3 1 2 4 6 10 11 12 12 12 19 21 17 23 25 21 16 18 19 20 20 19 19 19 19 15
3 4 4 5 3 5 11 17 10 15 16 17 15 13 13 14 17 16 10 7 7 8 8 6 7 7 7 10 12 13 15 18 15 18 21 17 23 24 20 22 19 19 20 19 19 18 13 13 11
7 4 1 2 3 3 4 9 11 17 17 16 14 14 13 15 14 15 12 13 14 13 11 11 11 13 16 16 16 18 19 18 19 17 24 22 23 26 22 23 26 21 19 22 16 19 24 22 18
3 2 3 2 3 4 4 5 5 14 14 14 15 15 17 16 17 17 17 17 17 16 13 12 15 17 20 22 23 23 22 24 25 27 25 29 29 29 27 24 22 25 21 20 20 19 21 24 28
2 1 1 4 5 1 4 2 3 7 10 12 14 18 17 19 18 18 18 18 18 16 15 15 17 21 24 26 26 26 26 29 29 30 32 33 34 34 33 29 28 27 25 23 22 21 22 18 21
1 1 4 5 4 7 4 3 2 2 12 15 18 21 21 19 21 20 20 19 18 17 18 18 21 24 28 30 30 30 30 32 32 34 36 38 38 38 38 37 34 32 30 31 26 22 19 19 16
2 3 2 2 2 3 3 4 3 1 8 14 18 21 21 21 18 17 16 20 20 17 16 20 23 24 24 25 26 26 28 28 30 32 35 36 37 37 36 38 38 36 33 33 33 30 25 21 21
2 2 3 2 1 2 3 3 2 2 4 7 16 20 21 18 13 15 9 7 9 15 18 19 18 16 18 21 23 26 29 33 37 41 43 42 42 43 43 43 41 41 40 35 33 31 28 24 20
4 4 3 1 0 2 2 3 3 4 6 7 15 18 15 10 8 6 7 9 10 11 12 14 17 19 21 23 28 32 36 38 40 40 34 34 32 31 31 33 35 33 30 32 34 31 32 28 23
4 2 2 4 3 6 1 2 1 2 1 3 8 10 7 5 5 5 6 7 9 13 14 16 18 21 27 31 35 37 38 38 36 32 35 36 33 30 32 31 28 28 31 25 24 25 30 28 26
2 1 2 3 1 3 1 2 6 5 4 3 6 7 5 4 5 5 7 10 13 13 16 20 23 28 32 37 38 38 36 32 33 32 29 29 26 27 28 28 30 27 24 25 22 22 22 23 24
1 6 1 1 3 4 2 3 3 7 9 5 7 7 5 6 5 6 9 12 15 18 21 24 27 32 38 37 35 33 32 31 28 27 27 27 27 28 27 24 24 25 23 25 23 22 22 21 22
2 2 4 1 2 3 5 3 2 4 6 9 10 8 5 5 5 8 12 14 15 21 23 27 32 33 29 28 31 32 32 29 25 25 24 24 25 26 27 27 27 22 19 16 23 22 23 23 22
2 1 1 2 2 1 2 7 2 3 4 3 9 6 3 5 7 11 13 15 20 22 25 27 28 27 25 27 29 29 29 24 24 24 25 25 26 26 26 25 23 21 18 18 16 21 25 24 22
Wind_Direction
48 74 100 57 66 67 71 98 312 162 327 289 9 54 74 43 7 94 135 119 138 146 161 168 162 158 157 151 144 134 122 116 117 120 122 119 116 113 109 105 101 95 91 90 95 100 103 104 97
46 57 60 63 65 79 89 213 194 163 326 137 21 27 55 68 56 83 102 127 121 137 158 173 171 165 162 162 159 152 144 136 134 133 134 131 122 114 108 104 101 97 93 85 81 90 95 99 104
30 47 41 63 62 64 98 201 140 192 155 335 80 56 18 26 56 61 99 123 119 131 143 163 173 174 172 171 173 170 171 172 164 156 153 143 129 110 95 76 65 51 28 31 13 328 310 300 279
39 52 56 46 89 65 60 155 161 134 144 46 78 75 36 106 85 114 124 118 118 128 123 142 166 175 180 184 186 191 199 206 211 228 275 300 306 311 320 333 341 334 325 341 323 314 314 310 310
54 60 65 72 49 46 96 142 141 101 135 68 39 118 96 115 112 123 129 124 129 104 118 132 151 167 177 188 203 214 240 273 297 311 313 310 306 302 301 300 305 305 312 330 320 312 306 300 298
66 78 33 83 76 96 127 141 138 102 89 104 111 120 114 136 125 121 121 118 106 118 110 118 128 165 180 200 210 212 220 229 242 249 267 284 290 289 285 284 284 283 288 291 284 281 278 280 283
82 55 73 85 118 124 147 139 139 121 117 110 136 122 156 152 153 121 118 114 135 119 111 111 134 158 175 206 262 282 290 280 278 285 288 283 273 269 266 262 265 276 279 272 268 279 290 290 285
90 93 119 152 153 117 153 128 127 106 92 133 144 153 170 176 163 141 133 127 129 118 109 102 94 107 140 200 250 257 249 262 269 269 261 265 275 274 272 269 269 272 279 280 281 280 279 285 281
90 85 92 143 172 131 159 139 162 144 142 149 183 160 171 180 169 149 143 131 107 78 83 87 68 58 3 260 257 282 275 271 271 273 274 272 270 269 266 267 270 273 268 268 276 280 284 281 281
11 201 170 158 158 157 164 158 141 163 159 125 140 162 177 183 168 150 149 157 143 58 57 89 13 9 9 344 353 338 322 317 312 304 299 292 288 284 280 277 273 264 271 280 286 282 280 281 283
140 249 120 158 176 154 159 153 161 155 173 166 170 168 180 179 172 162 153 143 111 73 32 32 28 43 25 5 349 333 336 318 312 307 306 303 297 293 291 289 277 283 281 281 284 284 280 283 277
221 278 19 133 157 153 161 147 149 188 156 170 169 173 178 180 176 177 175 159 55 52 31 31 31 18 6 354 347 341 342 337 334 330 327 320 305 289 279 276 280 280 285 285 284 283 279 281 283
21 83 81 113 130 121 141 139 152 186 173 171 173 177 181 180 183 189 173 117 91 55 35 26 16 6 359 360 1 5 14 15 7 359 354 350 333 326 320 310 298 292 280 285 284 282 281 281 281
45 107 116 77 103 102 144 129 147 209 176 165 168 173 179 190 197 188 139 131 105 77 62 49 43 32 29 44 19 35 29 11 6 360 355 349 345 339 331 323 316 309 301 290 286 283 278 273 273
105 103 102 45 58 84 140 149 193 171 170 165 174 176 185 196 183 167 147 125 100 92 89 80 33 32 29 41 30 4 358 1 352 345 339 336 334 332 327 317 308 302 296 291 284 275 268 265 264
73 96 162 20 84 147 214 224 188 174 177 171 174 173 177 178 171 164 138 120 117 114 115 121 55 36 31 338 334 348 330 334 340 329 322 320 325 327 320 315 306 301 296 286 280 274 266 257 254
39 93 117 106 56 173 217 243 200 183 184 174 173 173 175 171 166 164 142 134 147 158 178 180 235 319 308 325 319 316 313 303 325 326 317 330 335 329 328 328 324 317 301 293 279 269 258 252 251
75 114 88 134 67 202 216 247 186 188 187 181 176 174 180 177 176 168 172 191 200 213 224 244 248 267 295 301 299 295 293 299 296 318 312 324 321 312 318 325 317 318 297 288 290 287 273 256 242
120 111 101 182 176 276 234 271 216 188 190 187 184 184 182 189 189 188 203 214 222 230 242 251 263 265 269 277 286 286 285 283 287 302 300 309 302 304 303 311 313 315 300 284 287 287 272 266 278
105 98 36 279 353 319 351 17 150 193 201 202 194 193 200 206 209 214 224 234 240 243 255 272 277 276 274 276 277 281 282 284 287 289 287 296 291 294 296 293 299 305 295 284 293 298 293 278 270
50 39 296 303 345 68 321 151 175 197 206 205 208 210 216 219 228 239 243 246 251 260 267 281 285 280 278 277 278 278 285 289 289 284 282 281 281 286 291 292 288 287 284 284 286 291 291 278 272
289 258 283 287 294 315 349 300 194 214 219 222 217 217 224 227 236 248 257 265 275 279 279 279 285 283 280 280 282 286 293 293 291 290 287 286 282 282 284 288 287 285 281 281 279 284 281 278 271
11 6 6 358 154 212 30 274 103 225 227 225 219 219 225 231 243 259 275 282 282 277 275 284 286 289 291 290 291 292 294 297 299 298 296 292 288 284 284 284 285 284 280 274 270 272 275 270 269
334 249 66 88 161 192 20 315 138 275 291 226 214 219 222 233 247 262 274 288 281 280 284 289 297 304 302 295 293 294 297 299 299 298 297 297 294 293 288 285 285 282 278 271 267 261 262 263 264
14 352 328 222 348 340 18 256 340 296 254 235 209 211 219 223 228 237 275 284 285 290 297 302 302 300 295 298 299 300 301 303 304 304 305 303 301 297 295 293 288 287 287 276 263 256 250 253 251
48 355 312 311 310 319 215 233 56 222 312 256 239 212 183 189 227 263 276 293 303 305 299 298 294 299 305 306 307 307 307 308 306 304 303 304 302 304 307 303 293 284 281 283 268 255 243 244 248
130 260 65 114 118 263 296 235 248 210 202 172 148 154 156 195 214 260 289 303 305 304 305 303 306 309 308 310 310 309 310 310 307 305 307 309 308 310 308 303 301 298 283 269 266 257 242 241 240
282 129 228 105 288 295 240 271 287 218 223 193 182 179 184 211 250 287 305 310 317 313 307 308 311 311 311 311 310 310 311 312 308 307 309 306 301 300 301 297 295 297 293 266 255 249 245 239 239
154 190 66 64 304 283 301 304 184 262 283 248 211 192 204 223 248 295 311 317 315 314 309 308 312 314 313 313 313 313 313 313 311 311 309 308 305 306 299 299 295 296 294 287 259 247 240 240 243
342 19 178 223 203 188 303 285 166 279 302 233 186 197 231 254 285 308 311 314 316 315 313 316 317 317 315 316 316 312 313 312 310 308 310 310 310 304 299 296 295 288 289 288 271 252 240 235 239